Location: Seattle
(47.6064°N, 122.3308°W)
Time: 03:52:27
(UTC-08:00)

N. Korean satellite - Pass Details

Date: 27 October 2020
Orbit: 453 x 503 km, 97.2° (Epoch: 03 December)

Event Time Altitude Azimuth Distance (km) Brightness Sun altitude
Rises 18:25:45 0° 191° (S) 2,547 10.6 -5.2°
Reaches altitude 10° 18:28:01 10° 203° (SSW) 1,662 9.8 -5.6°
Maximum altitude 18:31:08 28° 264° (W) 930 9.1 -6.1°
Drops below altitude 10° 18:34:15 10° 325° (NW) 1,649 9.6 -6.6°
Sets 18:36:30 0° 338° (NNW) 2,523 10.3 -7.0°
